Simultaneous Nadir Overpasses (SNOs) Predictions

Prediction of SNOs between GOES-16 and NOAA-19 Satellite Orbit:

Table of predicted SNOs for the next 14.0 days since TLE Epoch: 2/1/2019
Index Date Time (GOES-16) GOES-16 Lat,Lon NOAA-19 Lat,Lon Distance(km) Time Diff (sec)
1 02/04/2019 09:45:14 0.02, -75.18 0.41, -76.83 188.93 80
2 02/05/2019 09:30:59 0.02, -75.18 -0.27, -74.01 134.11 80
3 02/06/2019 09:19:23 0.01, -75.18 -0.94, -71.18 457.31 80
4 02/07/2019 21:52:18 -0.02, -75.18 -0.94, -79.05 442.20 80
5 02/08/2019 21:40:42 -0.01, -75.18 -0.24, -76.22 118.46 80
6 02/09/2019 21:31:46 -0.01, -75.19 0.40, -73.39 205.44 80
7 02/12/2019 09:52:52 0.01, -75.21 0.74, -78.39 363.24 80
8 02/13/2019 09:41:16 0.01, -75.21 0.12, -75.55 39.46 80
9 02/14/2019 09:27:01 0.01, -75.22 -0.56, -72.73 284.60 80




NCC Satellite Simultaneous Nadir Overpasses (SNOs) Prediction Service
